Wind_Speed
38 38 38 38 37 36 35 33 28 31 33 29 24 24 22 21 20 23 22 23 23 23 24 27 27 27 27 22 22 22 27 33 37 37 36 26 23 25 24 22 20 25 26 28 24 29 35 21 17
28 35 36 34 34 34 34 34 29 30 29 26 25 22 19 18 19 21 22 22 22 23 25 24 24 23 19 17 18 23 30 35 34 35 30 20 23 20 21 24 26 33 27 29 27 28 30 32 17
23 27 31 35 37 34 31 28 27 26 27 26 21 18 19 18 20 21 22 22 22 21 22 21 21 18 17 16 20 25 29 32 32 32 25 16 20 15 25 24 26 27 28 31 31 23 24 26 32
26 25 25 25 31 32 29 27 24 23 19 18 19 19 17 17 19 19 20 18 18 18 19 20 17 15 15 18 24 26 26 28 31 32 27 16 16 15 18 19 25 26 22 24 21 19 21 24 25
29 26 24 23 21 22 23 21 22 21 20 18 15 11 11 14 15 16 15 15 16 15 18 16 13 14 18 22 22 20 21 24 31 35 32 19 16 16 15 20 24 19 14 17 21 20 20 22 23
26 25 26 26 24 23 24 26 23 23 20 18 14 11 13 15 12 13 11 12 14 16 15 14 14 14 20 21 19 16 19 26 31 39 32 20 17 13 16 18 18 15 13 16 18 22 22 23 25
30 29 27 25 24 25 19 24 29 26 23 18 15 14 15 17 13 11 11 11 11 9 12 12 14 22 19 21 16 17 20 29 30 35 29 22 19 10 17 22 18 16 13 12 16 23 34 32 29
33 31 27 21 19 19 20 18 18 21 20 17 14 13 15 17 14 13 11 10 9 15 19 18 20 22 19 16 13 16 21 27 30 31 35 21 16 14 15 17 17 15 13 11 20 26 35 39 35
30 31 27 20 18 9 14 20 26 26 24 18 17 15 17 13 12 9 11 11 15 19 18 16 19 21 19 12 12 13 20 24 27 32 34 26 19 16 13 13 21 28 11 15 19 26 29 37 39
25 27 27 30 28 23 18 25 27 20 21 19 18 17 11 10 12 8 8 12 15 17 18 18 21 21 20 13 13 12 18 24 26 30 31 27 30 19 19 9 11 18 25 27 22 23 26 28 32
17 20 23 29 37 34 32 30 32 30 21 19 18 16 12 10 13 12 10 17 19 21 22 23 23 21 22 14 14 11 14 23 23 26 30 26 27 26 24 15 16 14 17 19 20 20 24 23 28
14 15 15 19 25 29 29 30 27 21 18 17 16 15 16 10 14 20 20 19 17 18 22 22 24 23 21 18 12 12 17 21 20 22 24 25 22 21 21 20 17 18 18 17 20 23 24 29 26
17 15 13 13 15 17 16 17 20 20 20 17 14 16 16 12 13 15 21 22 20 20 22 22 19 21 21 19 16 17 17 18 19 21 22 20 20 20 21 20 18 19 22 25 22 24 26 27 26
20 18 16 16 15 14 13 11 14 13 19 16 13 12 12 14 17 19 22 26 26 24 23 22 19 20 19 17 16 17 18 14 19 21 21 24 27 23 17 16 23 26 25 25 27 27 23 20 24
24 22 22 19 16 14 11 13 17 13 17 17 14 13 17 19 21 22 26 25 28 26 22 24 26 23 21 21 19 20 18 19 21 21 21 24 26 26 20 25 25 29 29 30 33 33 31 27 22
30 30 28 26 22 19 15 14 20 18 18 18 18 20 16 13 18 18 21 23 21 20 20 20 24 23 21 21 23 23 22 23 24 22 24 24 26 27 25 23 30 37 31 30 30 30 32 30 29
34 34 33 30 27 25 22 21 22 24 21 23 21 20 20 18 23 21 21 21 17 18 19 20 22 24 25 24 24 25 26 25 26 24 28 31 30 31 29 27 29 25 24 20 26 30 32 34 33
35 35 34 33 30 28 23 24 24 26 25 23 24 23 22 27 26 19 20 19 19 20 21 21 22 24 24 25 25 26 27 29 30 30 34 35 32 33 34 34 32 24 30 27 30 31 32 34 35
40 35 35 34 31 29 29 30 25 26 26 25 25 25 26 19 18 18 27 25 25 23 25 25 25 27 26 27 30 31 34 34 36 33 35 36 33 33 38 38 31 29 34 32 34 36 37 35 38
41 39 38 37 37 34 32 33 31 33 34 32 30 22 26 31 28 30 34 34 29 29 30 29 31 29 30 31 33 35 36 35 34 33 33 35 36 37 38 38 36 32 31 27 33 36 38 40 40
42 41 40 38 39 38 36 37 41 41 37 34 36 34 35 37 40 37 43 36 34 34 35 30 31 29 28 30 31 33 34 30 34 33 33 36 39 38 34 30 35 32 30 33 37 40 46 37 41
45 44 44 46 48 41 37 39 42 45 43 42 38 36 33 38 34 40 43 40 39 37 34 31 33 33 29 30 30 31 32 31 31 32 34 34 39 32 23 36 36 32 36 39 43 43 41 40 41
43 46 49 48 51 48 48 46 49 49 49 45 41 41 36 36 38 40 44 44 40 35 37 39 35 32 31 31 30 32 34 32 35 38 39 32 33 29 31 41 34 35 43 46 41 38 42 49 44
46 46 44 45 46 46 54 53 50 53 52 51 44 43 43 42 39 35 30 32 41 44 42 36 36 35 31 31 33 35 37 38 37 42 41 37 38 32 30 44 42 47 37 36 35 37 48 39 39
53 51 50 48 47 50 51 45 51 55 52 49 41 40 44 45 35 26 29 31 38 42 47 47 45 40 37 37 38 41 41 41 37 42 34 32 36 36 35 44 52 43 45 47 49 54 60 45 48
54 47 49 49 50 53 51 51 59 49 51 48 43 42 37 37 35 37 36 39 42 40 44 50 53 51 48 44 39 41 42 43 41 47 45 42 45 49 49 51 53 50 54 60 66 58 54 45 55
60 56 58 54 55 54 55 55 50 48 45 44 45 44 42 42 40 41 43 47 47 46 45 47 55 54 53 48 42 42 44 43 47 51 55 52 58 62 54 52 49 56 59 64 70 67 58 56 65
62 64 64 61 60 62 63 61 58 50 48 48 49 51 51 46 45 42 48 51 53 48 38 34 33 45 47 44 38 37 35 45 48 43 53 56 55 53 53 54 49 64 69 70 68 69 63 64 70
66 66 68 66 65 65 66 65 59 57 53 50 48 47 51 52 47 47 51 52 54 51 45 30 33 39 35 36 32 35 50 40 53 30 53 60 55 53 53 54 61 67 66 69 75 74 73 79 72
66 64 64 64 65 64 66 66 62 62 62 56 51 49 49 50 50 51 56 56 54 54 48 43 52 46 16 22 33 37 44 48 66 65 63 72 66 67 65 69 72 77 75 75 72 65 69 73 75
Wind_Direction
219 222 224 229 233 239 243 250 255 255 271 285 283 285 288 299 307 302 299 299 297 297 296 300 307 313 310 308 311 318 328 330 334 338 333 337 356 357 357 3 5 10 5 4 4 14 13 342 295
219 224 227 231 237 243 250 260 265 267 276 282 284 282 286 299 297 297 301 298 302 302 306 308 312 312 313 317 322 329 332 335 337 337 337 350 5 360 357 352 351 351 5 1 360 359 6 20 6
214 224 229 235 240 245 247 252 269 282 283 280 278 277 286 290 291 294 297 299 301 306 309 307 309 315 322 321 319 330 337 337 337 343 344 346 3 356 340 343 358 355 359 355 354 4 16 34 43
215 220 230 234 248 248 251 259 259 263 263 268 271 274 279 285 287 291 295 299 305 308 305 312 321 331 333 327 327 330 338 337 344 352 349 329 349 355 341 2 6 359 358 357 6 17 18 27 40
212 218 221 221 223 231 238 247 258 263 265 260 262 273 277 279 279 284 295 300 304 302 309 318 332 334 330 329 333 343 343 345 348 354 349 334 332 349 355 7 359 10 10 19 19 26 27 26 28
210 214 222 231 234 235 243 251 253 258 258 261 250 249 261 260 268 278 289 293 300 305 312 311 321 330 338 342 340 341 341 341 348 352 350 341 339 345 356 352 357 9 13 44 37 49 40 40 41
217 220 224 226 232 240 249 248 255 253 253 250 249 246 258 259 254 264 280 291 305 327 334 323 327 327 337 336 338 329 336 346 353 358 357 349 348 360 359 9 13 14 30 54 41 43 58 56 51
220 223 227 228 233 248 242 240 246 245 246 246 236 243 256 268 261 258 271 279 278 308 311 307 319 329 341 337 337 323 330 343 354 360 5 15 12 21 20 30 30 17 48 36 57 74 55 54 50
217 222 212 190 195 209 229 240 258 271 268 245 238 233 248 266 262 270 281 280 296 308 314 324 334 337 342 337 335 334 348 352 359 1 5 6 15 13 19 48 52 52 59 65 72 57 55 47 41
216 213 208 189 200 210 222 228 244 260 257 237 238 242 245 261 262 277 301 305 309 312 312 322 333 335 339 341 343 353 360 359 359 1 5 17 19 1 0 21 18 12 48 51 55 55 42 28 32
209 214 212 213 214 227 238 253 258 259 241 234 232 240 237 250 255 268 298 314 312 318 312 313 323 328 331 343 339 345 349 354 2 1 3 1 2 10 16 360 340 336 8 10 12 8 353 356 7
208 216 218 216 228 235 244 253 258 251 239 234 237 246 241 250 262 287 291 308 311 318 317 314 319 323 328 339 339 329 337 349 3 359 0 354 355 354 348 354 340 328 330 321 335 341 343 325 335
208 215 226 223 222 234 233 237 252 251 252 251 241 244 235 250 261 272 293 302 302 307 315 313 322 326 328 336 341 332 336 347 357 0 356 348 339 339 337 325 329 327 319 314 312 315 318 327 325
215 218 229 236 227 235 250 249 240 224 234 237 235 234 250 264 274 276 286 299 300 303 311 310 319 323 322 325 330 335 344 348 350 345 341 343 340 340 337 316 312 305 307 309 307 301 298 321 324
234 239 232 230 238 230 228 250 253 232 234 238 240 245 249 260 268 282 284 287 294 299 307 315 318 317 319 321 326 332 331 320 332 333 334 337 337 334 336 331 335 323 309 309 306 311 306 297 316
232 236 237 233 230 238 219 235 257 256 248 252 254 250 262 288 297 297 302 282 284 293 305 310 311 311 314 315 317 317 318 323 325 323 327 322 325 325 313 325 329 329 310 300 304 302 303 299 308
230 239 233 238 239 240 234 226 237 255 259 262 262 272 272 268 286 292 303 303 273 282 296 308 311 305 306 309 313 311 317 313 313 311 320 321 322 318 315 317 327 327 336 320 315 315 306 301 297
226 234 240 237 240 245 249 248 247 252 261 263 267 267 260 269 275 285 293 299 290 290 294 300 303 300 296 301 308 311 314 312 309 306 311 313 316 316 314 321 318 307 327 323 322 327 328 309 295
243 233 231 236 234 241 247 252 252 251 255 262 261 271 260 268 279 288 293 294 295 291 298 301 297 300 299 298 301 304 306 305 307 305 305 311 314 317 316 316 318 295 311 308 314 325 323 318 311
243 246 242 242 246 245 248 255 262 259 259 260 264 255 256 267 271 277 288 293 291 294 297 299 298 299 304 301 302 304 304 307 303 303 307 313 317 318 318 325 324 307 311 311 315 321 321 313 310
244 244 247 243 244 248 254 261 261 259 259 256 261 260 255 269 284 283 279 284 288 292 292 296 295 295 295 298 301 302 302 300 305 304 308 314 316 320 332 315 310 306 305 310 312 310 315 304 306
243 247 248 249 249 252 259 262 262 260 257 258 255 257 260 269 281 281 282 286 287 290 289 292 290 288 292 296 296 296 300 299 302 304 309 314 322 322 316 301 296 294 297 304 305 319 313 301 303
242 246 248 250 253 252 256 253 254 259 263 262 260 261 254 258 263 272 281 286 287 287 288 290 288 285 286 289 287 290 291 295 301 303 305 304 315 312 302 290 293 291 296 298 305 311 313 303 290
244 249 254 253 255 257 256 257 261 259 257 256 255 261 265 267 265 267 270 273 278 278 278 280 280 280 282 282 281 281 287 290 300 308 302 303 313 305 288 276 285 293 291 298 299 290 300 288 280
240 243 247 249 254 257 259 263 254 255 259 261 265 262 264 268 277 279 277 272 270 275 284 288 287 281 281 281 280 283 293 300 296 296 289 300 289 288 271 282 293 289 287 292 298 293 298 278 286
244 247 251 253 255 259 259 256 256 259 259 261 264 268 274 268 268 266 269 273 274 275 276 280 283 287 289 290 290 294 292 291 297 294 287 286 284 274 274 275 275 277 283 285 297 298 293 275 266
244 246 250 252 254 255 259 258 265 262 266 264 262 264 263 264 265 267 269 267 270 276 281 280 274 272 281 289 298 296 298 305 308 303 291 277 276 278 284 272 276 269 280 281 289 293 289 276 270
243 248 252 253 253 255 256 259 263 267 267 269 268 267 267 271 270 268 271 274 277 280 282 309 301 283 278 281 293 298 305 318 313 311 287 288 283 277 281 279 269 275 281 285 284 284 284 278 272
247 250 251 252 252 254 257 260 264 266 266 268 272 271 267 268 262 263 267 273 279 283 283 287 310 312 288 291 302 300 291 292 302 260 273 277 289 284 284 280 278 279 282 284 286 285 275 281 273
246 247 250 250 251 253 256 258 261 266 267 264 267 267 266 263 262 264 267 274 277 280 282 272 281 300 293 268 251 254 253 252 232 252 263 268 274 277 279 281 280 281 282 286 285 280 277 276 277
Height
10967 10972 10974 10977 10979 10984 10986 10989 10991 10990 10989 10992 10993 10992 10991 10989 10989 10989 10989 10988 10988 10986 10986 10984 10981 10979 10976 10972 10967 10965 10961 10957 10953 10948 10942 10936 10932 10927 10922 10918 10914 10910 10906 10902 10898 10892 10887 10881 10878
10966 10969 10972 10975 10978 10980 10982 10984 10986 10986 10986 10989 10988 10987 10988 10988 10987 10987 10986 10985 10984 10984 10982 10980 10978 10976 10972 10969 10965 10961 10958 10954 10950 10945 10939 10935 10930 10926 10921 10917 10913 10908 10904 10899 10896 10892 10887 10880 10875
10964 10967 10970 10972 10975 10978 10981 10981 10981 10986 10985 10985 10984 10983 10984 10986 10984 10984 10983 10982 10981 10980 10979 10977 10975 10972 10969 10966 10963 10959 10956 10951 10946 10942 10938 10933 10930 10926 10922 10918 10913 10908 10903 10899 10895 10891 10886 10882 10877
10963 10963 10968 10973 10975 10977 10977 10980 10980 10984 10983 10982 10981 10979 10981 10982 10981 10980 10979 10979 10979 10978 10976 10974 10972 10970 10967 10964 10960 10958 10954 10949 10945 10940 10934 10930 10928 10925 10922 10918 10913 10908 10903 10899 10894 10889 10885 10880 10877
10958 10964 10967 10967 10969 10969 10970 10973 10976 10980 10981 10980 10980 10977 10976 10977 10979 10978 10978 10977 10976 10975 10973 10971 10969 10968 10965 10961 10958 10955 10952 10948 10943 10938 10932 10927 10926 10924 10921 10917 10912 10907 10902 10898 10895 10891 10887 10883 10879
10957 10960 10961 10966 10969 10970 10972 10972 10973 10976 10977 10978 10977 10975 10975 10975 10977 10975 10976 10974 10973 10971 10969 10969 10967 10965 10963 10959 10956 10953 10951 10947 10942 10936 10930 10926 10923 10922 10919 10916 10911 10906 10902 10899 10895 10892 10888 10885 10882
10955 10956 10959 10964 10966 10966 10969 10967 10969 10971 10973 10974 10974 10973 10972 10972 10976 10973 10972 10971 10970 10968 10967 10966 10965 10963 10960 10957 10954 10952 10949 10946 10941 10936 10928 10924 10921 10920 10917 10914 10910 10906 10904 10901 10897 10894 10890 10886 10883
10950 10952 10958 10960 10963 10965 10966 10965 10965 10968 10969 10970 10972 10973 10971 10969 10973 10971 10969 10968 10967 10966 10965 10963 10962 10960 10958 10955 10952 10950 10948 10945 10940 10935 10929 10924 10922 10919 10916 10914 10910 10907 10905 10903 10900 10897 10893 10888 10884
10947 10951 10954 10957 10957 10961 10962 10963 10963 10963 10966 10967 10969 10970 10970 10967 10967 10968 10966 10967 10966 10964 10962 10961 10960 10957 10956 10953 10950 10949 10948 10944 10940 10936 10931 10926 10923 10921 10919 10915 10913 10911 10905 10904 10901 10898 10896 10890 10888
10944 10947 10950 10954 10953 10952 10957 10959 10963 10961 10962 10964 10966 10967 10968 10967 10963 10966 10965 10964 10963 10962 10960 10958 10956 10954 10953 10951 10949 10948 10947 10943 10939 10936 10932 10928 10926 10923 10920 10917 10915 10914 10911 10907 10903 10899 10895 10893 10889
10942 10944 10947 10951 10952 10953 10956 10955 10958 10960 10961 10962 10964 10965 10966 10965 10962 10963 10964 10963 10961 10959 10957 10955 10954 10952 10951 10950 10947 10946 10945 10942 10939 10936 10932 10928 10925 10924 10921 10919 10917 10914 10912 10909 10906 10904 10898 10894 10891
10940 10941 10944 10949 10951 10953 10955 10953 10953 10954 10955 10958 10960 10961 10962 10963 10962 10959 10959 10961 10959 10956 10954 10953 10951 10949 10949 10948 10946 10945 10943 10941 10939 10936 10933 10930 10927 10924 10921 10918 10915 10912 10909 10906 10904 10901 10898 10893 10890
10937 10939 10941 10943 10947 10950 10951 10951 10950 10951 10951 10954 10956 10958 10959 10960 10961 10959 10956 10955 10956 10954 10951 10949 10949 10948 10947 10945 10945 10944 10942 10939 10937 10934 10931 10929 10925 10921 10918 10915 10913 10908 10906 10903 10901 10898 10896 10892 10887
10934 10936 10938 10939 10942 10945 10947 10947 10947 10948 10947 10949 10952 10954 10956 10957 10958 10958 10957 10951 10948 10951 10949 10946 10947 10946 10945 10945 10943 10941 10939 10938 10934 10932 10928 10923 10919 10916 10915 10911 10908 10906 10904 10900 10897 10894 10892 10889 10886
10931 10933 10933 10934 10938 10939 10944 10944 10943 10945 10947 10948 10950 10952 10953 10954 10954 10953 10953 10954 10947 10946 10947 10943 10940 10941 10939 10938 10938 10938 10936 10935 10932 10926 10923 10920 10916 10912 10909 10907 10904 10900 10896 10893 10891 10889 10886 10882 10880
10926 10926 10928 10930 10932 10935 10941 10942 10938 10941 10944 10946 10948 10949 10951 10950 10951 10950 10948 10949 10948 10946 10945 10943 10939 10937 10936 10935 10933 10932 10931 10928 10925 10921 10917 10916 10913 10909 10905 10902 10897 10893 10888 10885 10884 10882 10880 10877 10874
10920 10920 10923 10926 10927 10930 10934 10938 10938 10937 10940 10941 10942 10944 10945 10945 10945 10946 10945 10943 10942 10942 10941 10941 10939 10935 10934 10933 10931 10928 10924 10922 10919 10918 10915 10911 10909 10905 10900 10897 10892 10888 10884 10881 10880 10877 10873 10869 10867
10913 10916 10918 10920 10923 10926 10930 10933 10935 10934 10935 10936 10936 10938 10939 10939 10940 10940 10940 10938 10938 10937 10935 10936 10935 10932 10931 10929 10927 10925 10923 10919 10915 10912 10910 10908 10904 10899 10894 10892 10888 10883 10881 10878 10875 10871 10866 10863 10859
10907 10911 10912 10915 10917 10920 10923 10926 10932 10932 10931 10930 10929 10930 10931 10933 10934 10935 10936 10936 10935 10932 10930 10928 10929 10927 10925 10923 10921 10919 10917 10912 10908 10904 10902 10898 10895 10892 10887 10884 10884 10877 10874 10871 10866 10862 10858 10855 10851
10900 10904 10906 10909 10911 10915 10917 10919 10923 10924 10926 10927 10925 10925 10924 10928 10930 10931 10933 10931 10930 10927 10925 10921 10919 10920 10919 10917 10916 10913 10909 10906 10901 10898 10896 10891 10888 10885 10881 10876 10873 10870 10867 10862 10858 10853 10850 10845 10843
10892 10897 10899 10901 10904 10908 10912 10912 10913 10914 10917 10921 10918 10921 10922 10921 10920 10922 10925 10925 10920 10918 10916 10914 10910 10909 10909 10908 10906 10904 10902 10900 10896 10893 10890 10886 10882 10878 10875 10870 10867 10864 10860 10854 10850 10846 10842 10837 10832
10886 10888 10890 10891 10896 10902 10905 10904 10903 10900 10907 10910 10915 10917 10919 10918 10915 10914 10914 10912 10909 10906 10904 10903 10902 10900 10899 10899 10897 10895 10892 10890 10889 10887 10884 10881 10877 10875 10872 10866 10861 10859 10855 10851 10845 10839 10833 10829 10822
10877 10878 10882 10887 10887 10893 10893 10892 10886 10894 10895 10902 10908 10909 10914 10914 10911 10908 10903 10898 10896 10896 10892 10890 10891 10891 10890 10888 10887 10885 10882 10882 10881 10879 10877 10876 10873 10869 10869 10863 10857 10853 10849 10844 10840 10832 10819 10821 10814
10866 10869 10876 10878 10879 10884 10871 10884 10887 10880 10882 10890 10903 10904 10903 10902 10900 10901 10902 10897 10888 10884 10883 10884 10882 10881 10882 10881 10878 10876 10875 10875 10874 10871 10867 10866 10866 10864 10862 10853 10850 10844 10841 10837 10834 10830 10825 10815 10808
10856 10859 10863 10867 10871 10869 10867 10876 10870 10866 10872 10878 10891 10891 10886 10886 10896 10900 10895 10891 10887 10884 10876 10873 10873 10876 10877 10875 10872 10868 10868 10867 10868 10866 10860 10858 10856 10853 10849 10845 10840 10835 10832 10828 10828 10824 10819 10810 10799
10848 10853 10855 10860 10861 10860 10858 10859 10847 10864 10867 10872 10878 10880 10889 10885 10887 10885 10882 10879 10874 10875 10874 10868 10863 10862 10865 10865 10866 10867 10862 10860 10860 10858 10852 10849 10845 10842 10839 10836 10832 10824 10821 10817 10813 10812 10806 10798 10794
10838 10843 10840 10848 10850 10850 10845 10843 10849 10856 10860 10865 10868 10869 10871 10872 10870 10869 10866 10859 10855 10857 10857 10858 10853 10852 10854 10856 10859 10857 10852 10850 10850 10846 10841 10835 10831 10827 10823 10822 10819 10814 10805 10808 10805 10796 10790 10784 10778
10825 10827 10831 10835 10837 10836 10833 10834 10837 10849 10854 10856 10857 10857 10857 10858 10860 10858 10853 10845 10843 10850 10853 10851 10848 10844 10841 10844 10847 10843 10840 10843 10841 10834 10819 10819 10816 10811 10811 10810 10805 10803 10798 10793 10792 10783 10775 10772 10763
10814 10815 10818 10822 10822 10822 10821 10825 10834 10838 10842 10844 10844 10846 10847 10846 10847 10846 10840 10836 10834 10838 10842 10846 10838 10837 10835 10836 10838 10833 10831 10836 10833 10828 10814 10807 10804 10799 10796 10794 10790 10787 10783 10778 10772 10769 10765 10754 10748
10795 10802 10809 10809 10809 10810 10808 10816 10829 10827 10828 10832 10832 10832 10832 10833 10833 10831 10825 10826 10828 10827 10828 10831 10828 10829 10826 10832 10836 10834 10816 10834 10821 10805 10799 10793 10793 10790 10784 10780 10773 10767 10765 10760 10755 10746 10738 10735 10731